Zurück zum Katalog

STARLINK-4473

AktivKommunikationSSO
NORAD 53660·PAYLOAD·🇺🇸 United States

Gestartet Aug 31, 2022 von Vandenberg Space Force Base

Loading…

Nächste Überflüge (nächste 24 Stunden)

TLE

AktuellSource: CelesTrak SupGP

Epoche: Sep 15, 2026, 03:00 UTC

1 53660C 22105N   26258.12548611  .00031367  00000+0  21775-2 0  2582
2 53660  97.2844 132.2394 0002079  80.5415 301.3223 15.05646244    13

Verfolge STARLINK-4473 in Echtzeit mit AllMySat

Download on the App Store